Regional Weather Roundup
Issued by NWS

Home | Current Version | Previous Version | Graphics & Text | Print | Product List | Glossary Off
Versions: 1 2 3 4 5 6 7 8 9 10 11 12 13 14 15 16 17 18 19 20 21 22 23 24 25 26 27 28 29 30 31 32 33 34 35 36 37 38 39 40 41 42 43 44 45 46 47 48 49 50

000
ASUS43 KMKX 212000
RWRWI

WISCONSIN REGIONAL WEATHER ROUNDUP
NATIONAL WEATHER SERVICE MILWAUKEE/SULLIVAN WI
300 PM CDT SAT OCT 21 2017

NOTE: "FAIR" INDICATES FEW OR NO CLOUDS BELOW 12,000 FEET WITH NO
SIGNIFICANT WEATHER AND/OR OBSTRUCTIONS TO VISIBILITY.

WIZ001-002-006>008-014>016-023>028-212100-
NORTHWEST WISCONSIN

CITY           SKY/WX    TMP DP  RH WIND       PRES   REMARKS
SUPERIOR ARPT  CLOUDY    61  59  93 S12G17    29.66F
ASHLAND        CLOUDY    64  57  78 S14G22    29.71F
HAYWARD        CLOUDY    63  57  81 S10       29.73F
SIREN          CLOUDY    63  58  84 S16G22    29.69S
CUMBERLAND     CLOUDY    63  57  82 S13       29.72F
RICE LAKE      CLOUDY    64  58  81 SE9       29.75S
CHETEK         CLOUDY    66  59  79 S9G17     29.75S
LADYSMITH      CLOUDY    66  58  73 S9G22     29.78S
EAU CLAIRE     NOT AVBL
MENOMONIE      CLOUDY    68  59  73 S14G23    29.75S
NEW RICHMOND   CLOUDY    65  57  77 S16G22    29.71R
OSCEOLA        CLOUDY    65  65 100 S15G24    29.71F
$$

WIZ003>005-009-010-017-018-212100-
NORTH CENTRAL WISCONSIN

CITY           SKY/WX    TMP DP  RH WIND       PRES   REMARKS
MANITOWISH WTR CLOUDY    64  59  82 S15G23    29.79S
ARBOR VITAE    CLOUDY    65  57  74 S13G18    29.81F
WOODRUFF       CLOUDY    65  57  74 S13G18    29.81F
RHINELANDER    CLOUDY    66  57  72 S8        29.84F
EAGLE RIVER    NOT AVBL
LAND O LAKES   CLOUDY    68  56  64 S12G21    29.83S
PHILLIPS       CLOUDY    64  58  79 S14G24    29.78F
TOMAHAWK       CLOUDY    65  55  71 S6        29.83S
MEDFORD        CLOUDY    65  56  72 S20G25    29.83S
MERRILL        CLOUDY    68  56  66 SW10      29.85S
$$

WIZ029-030-035-036-043>047-212100-
CENTRAL WISCONSIN

CITY           SKY/WX    TMP DP  RH WIND       PRES   REMARKS
WAUSAU         CLOUDY    69  57  65 SW7       29.84R
MOSINEE        PTSUNNY   70  57  64 S13       29.87R
MARSHFIELD     CLOUDY    68  56  65 SW8       29.84S
STEVENS POINT  SUNNY     72  55  54 S16       29.85F
WAUPACA        SUNNY     77  56  47 S14G22    29.87F
WAUTOMA        MOSUNNY  N/A N/A N/A S17G24    29.86F
WISC RAPIDS    CLOUDY    74  58  57 S12       29.85F
CAMP DOUGLAS   NOT AVBL
$$

WIZ011>013-019>022-031-037>040-048>050-212100-
NORTHEAST WISCONSIN

CITY           SKY/WX    TMP DP  RH WIND       PRES   REMARKS
ANTIGO         SUNNY     72  56  57 S17       29.86S
SHAWANO        SUNNY     77  55  46 S10G17    29.87S
OCONTO         SUNNY     70  54  57 SE12      29.89S
STURGEON BAY   SUNNY     63  54  72 S21G28    29.93S
GREEN BAY      SUNNY     76  56  49 S16       29.89F
MANITOWOC      SUNNY     62  53  72 S21G30    29.95S
APPLETON       MOSUNNY   73  52  46 S16       29.98
CLINTONVILLE   NOT AVBL
OSHKOSH        SUNNY     75  57  53 S17G24    29.88F
$$

WIZ032>034-041-042-053>061-212100-
SOUTHWEST WISCONSIN

CITY           SKY/WX    TMP DP  RH WIND       PRES   REMARKS
LA CROSSE      CLOUDY    69  58  67 SE7       29.81F
SPARTA         CLOUDY    70  58  66 W5        29.83F
VIROQUA        CLOUDY    72  59  63 S9        29.84S
BOSCOBEL       MOSUNNY   80  58  46 S10G23    29.83F HX  80
PRAIRIE DU CHI CLOUDY    76  55  49 S8        29.81S
PLATTEVILLE    MOSUNNY   76  58  53 S22G28    29.87F
$$

WIZ056-057-062-063-064-067-068-212100-
SOUTH CENTRAL WISCONSIN

CITY           SKY/WX    TMP DP  RH WIND       PRES   REMARKS
REEDSBURG      MOSUNNY   75  58  55 S13G23    29.86S
BARABOO/DELLS  MOSUNNY   74  57  54 S14G23    29.87S
LONE ROCK      MOSUNNY   77  61  57 S12       29.84F
MINERAL POINT  MOSUNNY   77  59  53 S15G26    29.88S
MADISON        MOSUNNY   76  57  51 S25       29.88F
MIDDLETON      MOSUNNY   78  58  51 S15G25    29.88F
WATERTOWN      SUNNY     76  57  52 S17G24    29.91S
MONROE         SUNNY     75  54  46 S21G26    29.91F
JANESVILLE     MOSUNNY   79  54  41 S20G25    29.92F
$$

WIZ051-052-058>065-066-070>072-212100-
SOUTHEAST WISCONSIN

CITY           SKY/WX    TMP DP  RH WIND       PRES   REMARKS
MILWAUKEE      MOSUNNY   74  57  55 SE17      29.95F
WAUKESHA       SUNNY     73  54  49 S14G25    29.95F
MILWAUKEE/TIMM SUNNY     75  52  43 S16       29.94F
RACINE         SUNNY     68  56  65 S17       29.98F
BURLINGTON     SUNNY     77  57  50 S12G18    29.95F
KENOSHA        SUNNY     76  56  49 S17G25    29.97F
FOND DU LAC    SUNNY     77  54  44 S13G21    29.89F
SHEBOYGAN      SUNNY     66  56  70 S15G23    29.94F
WEST BEND      SUNNY     73  52  46 S14G23    29.93F
JUNEAU         SUNNY     75  58  54 S14       29.92S
$$

LSZ147-162-212100-
LAKE SUPERIOR

STATION/POSITION TIME  TEMP    WIND        PRES    WAVE
                       AIR SEA DIR/SP/G            HT/PER
                 (UTC) (F)     (DEG/KT/KT) (MB)    (FT/S)
W MID LAKE BUOY  1850   59 52              1006.5S   2/ 4
DEVILS ISLAND    1900   61     180/ 14/ 19 1005.7F
SAXON HARBOR     1940   67     200/  7/ 13 1006.1F
$$

LMZ867-665-643>646-212100-
LAKE MICHIGAN

STATION/POSITION TIME  TEMP    WIND        PRES    WAVE
                       AIR SEA DIR/SP/G            HT/PER
                 (UTC) (F)     (DEG/KT/KT) (MB)    (FT/S)
S GREEN BAY BUOY 1900   64 59  140/  8/  8 1012.5
N MID LAKE BUOY  1850   61 58  180/ 21/ 25 1015.0F   6/ 6
NORTHPORT PIER   1940   61     160/ 13/ 19 1013.5F
KEWAUNEE LAKESHO 1930   53     180/ 11/ 13 1013.2F
SHEBOYGAN LAKESH 1900   55     180/ 19/ 20 1014.1F
PORT WASHINGTON  1940   61     200/  8/ 12 1015.2S
ATWATER BUOY     1839   58 53  160/ 19/ 21 1014.6F
MILWAUKEE LAKESH 1930   59     150/ 20/ 23   N/A
S MID LAKE BUOY  1850   64 61  150/ 17/ 21 1016.7F   4/ 5
KENOSHA   LAKESH 1900   59     170/ 17/ 17 1015.2
$$

TC  - TEMPERATURE IN CELSIUS
VSB - VISIBILITY IN STATUTE MILES
WCI - WIND CHILL INDEX
HX  - HEAT INDEX





USA.gov is the U.S. government's official web portal to all federal, state and local government web resources and services.